period_start,C,m1,H,J0,J1,J2,J3,J4,J5,JA,JB,JC,JD,JJ,JK,JN,#
2014-12-17 00:03:31,0.19,6.45,0.00,20.64,25.27,28.56,4.93,27.37,1027.59,2035.89,1658.56,1980.02,2153.83,350.49,354.75,34.65,0000 0000 0000 0000 000000
2014-12-17 00:08:32,0.25,6.45,0.00,20.64,25.27,28.53,4.89,27.36,1027.63,2035.92,1657.22,1979.13,2152.83,350.09,354.30,34.68,0000 0000 0000 0000 000000
2014-12-17 00:13:34,0.29,6.46,0.00,20.63,25.27,28.55,4.88,27.48,1027.65,2035.95,1655.76,1978.16,2151.84,350.24,354.47,34.71,0000 0000 0000 0000 000000
2014-12-17 00:18:35,0.28,6.47,0.00,20.66,25.27,28.56,4.94,27.52,1027.76,2035.98,1654.26,1977.21,2150.81,350.42,354.72,34.74,0000 0000 0000 0000 000000
2014-12-17 00:23:36,0.28,6.48,0.00,20.62,25.27,28.56,4.91,27.43,1027.85,2035.96,1652.73,1976.21,2149.84,349.82,354.11,34.77,0000 0000 0000 0000 000000
2014-12-17 00:28:37,0.08,6.48,0.00,20.60,25.27,28.56,4.90,27.41,1027.83,2035.97,1651.96,1975.88,2149.07,350.00,354.46,34.80,0000 0000 0000 0000 000000
2014-12-17 00:33:38,0.16,6.49,0.00,20.61,25.27,28.53,4.92,27.49,1027.79,2035.97,1651.24,1975.14,2148.94,350.35,354.66,34.83,0000 0000 0000 0000 000000
2014-12-17 00:38:40,0.10,6.49,0.00,20.61,25.27,28.55,4.84,27.55,1027.80,2035.97,1650.62,1974.84,2148.12,350.30,354.61,34.86,0000 0000 0000 0000 000000
2014-12-17 00:43:41,0.19,6.50,0.00,20.61,25.27,28.52,4.88,27.56,1027.81,2035.96,1649.92,1973.97,2147.38,349.55,354.11,34.89,0000 0000 0000 0000 000000
2014-12-17 00:48:42,0.27,6.50,0.00,20.63,25.27,28.57,4.88,27.44,1027.77,2035.90,1648.55,1973.07,2146.28,349.94,354.51,34.92,0000 0000 0000 0000 000000
2014-12-17 00:53:44,0.23,6.51,0.00,20.63,25.27,28.57,4.84,27.52,1027.82,2035.83,1647.33,1972.20,2145.59,350.00,354.29,34.95,0000 0000 0000 0000 000000
2014-12-17 00:58:45,0.12,5.21,0.00,20.60,25.27,28.56,4.28,23.98,1027.83,2036.72,2025.40,2245.80,2440.08,309.41,315.05,0.00,0000 0000 0000 0000 000002
2014-12-17 01:03:46,0.15,0.00,0.00,20.57,25.28,28.54,4.94,27.00,1027.85,2039.99,3538.28,3340.36,3619.92,350.29,354.76,0.01,0000 0000 0000 0000 000000
2014-12-17 01:08:48,0.14,0.00,0.00,20.58,25.29,28.56,4.87,26.98,1027.85,2039.98,3536.07,3339.40,3618.44,349.03,353.47,0.04,0000 0000 0000 0000 000000
2014-12-17 01:13:48,0.13,0.00,0.00,20.59,25.29,28.55,4.86,26.84,1027.85,2039.99,3534.55,3338.74,3617.33,349.69,354.16,0.07,0000 0000 0000 0000 000000
2014-12-17 01:18:50,0.13,0.00,0.00,20.59,25.29,28.58,4.90,26.87,1027.85,2039.98,3533.02,3337.68,3616.18,350.22,354.63,0.10,0000 0000 0000 0000 000000
2014-12-17 01:23:51,0.12,0.01,0.00,20.61,25.29,28.56,4.87,26.88,1027.85,2039.98,3531.42,3336.81,3615.12,350.00,354.52,0.13,0000 0000 0000 0000 000000
2014-12-17 01:28:52,0.11,0.01,0.00,20.60,25.29,28.58,4.89,26.88,1027.85,2039.99,3529.84,3335.81,3613.92,349.84,354.26,0.16,0000 0000 0000 0000 000000
2014-12-17 01:33:54,0.14,0.01,0.00,20.61,25.29,28.59,4.93,27.03,1027.87,2039.99,3527.88,3334.61,3612.52,350.19,354.42,0.18,0000 0000 0000 0000 000000
2014-12-17 01:38:55,0.13,0.02,0.00,20.56,25.29,28.61,4.90,27.05,1027.99,2039.98,3525.76,3333.36,3611.20,349.91,354.29,0.21,0000 0000 0000 0000 000000
2014-12-17 01:43:56,0.15,0.02,0.00,20.60,25.29,28.57,4.90,27.00,1028.08,2039.98,3523.65,3331.89,3609.48,349.63,354.20,0.24,0000 0000 0000 0000 000000
2014-12-17 01:48:57,0.15,0.03,0.00,20.59,25.29,28.57,4.84,26.95,1028.00,2039.97,3521.54,3330.52,3607.89,349.74,354.75,0.27,0000 0000 0000 0000 000000
2014-12-17 01:53:58,0.13,0.03,0.00,20.57,25.29,28.56,4.92,26.83,1027.88,2039.98,3519.60,3329.26,3606.47,350.03,354.48,0.30,0000 0000 0000 0000 000000
2014-12-17 01:59:00,0.11,0.04,0.00,20.61,25.29,28.62,4.91,26.85,1027.85,2039.97,3517.63,3328.07,3605.21,349.93,354.50,0.33,0000 0000 0000 0000 000000
2014-12-17 02:04:01,0.09,0.04,0.00,20.62,25.29,28.57,4.96,26.81,1027.85,2039.98,3516.34,3327.22,3604.50,350.67,355.14,0.36,0000 0000 0000 0000 000000
2014-12-17 02:09:02,0.04,0.04,0.00,20.61,25.29,28.56,4.91,26.86,1027.85,2039.98,3515.69,3326.87,3603.60,350.29,354.74,0.39,0000 0000 0000 0000 000000
2014-12-17 02:14:03,0.07,0.04,0.00,20.61,25.29,28.56,4.93,26.94,1027.85,2039.99,3514.44,3326.06,3602.88,349.72,354.24,0.42,0000 0000 0000 0000 000000
2014-12-17 02:19:05,0.08,0.05,0.00,20.63,25.29,28.59,4.95,26.88,1027.85,2039.98,3513.44,3325.35,3602.03,350.17,354.59,0.45,0000 0000 0000 0000 000000
2014-12-17 02:24:06,0.06,0.05,0.00,20.61,25.28,28.56,4.86,26.92,1027.85,2039.98,3512.21,3324.82,3601.33,349.92,354.50,0.48,0000 0000 0000 0000 000000
2014-12-17 02:29:07,0.06,0.05,0.00,20.60,25.29,28.56,4.94,26.90,1027.85,2039.99,3511.12,3324.04,3600.98,350.16,354.33,0.51,0000 0000 0000 0000 000000
2014-12-17 02:34:08,0.06,0.05,0.00,20.60,25.28,28.57,4.94,26.81,1027.85,2039.99,3510.43,3323.74,3600.25,350.49,355.01,0.54,0000 0000 0000 0000 000000
2014-12-17 02:39:09,0.07,0.05,0.00,20.61,25.28,28.58,4.89,26.88,1027.87,2039.99,3509.45,3323.01,3599.49,349.72,354.11,0.57,0000 0000 0000 0000 000000
2014-12-17 02:44:10,0.04,0.05,0.00,20.61,25.28,28.57,4.92,26.85,1027.88,2039.98,3508.76,3322.59,3599.01,349.25,353.76,0.59,0000 0000 0000 0000 000000
2014-12-17 02:49:11,0.05,0.06,0.00,20.60,25.28,28.58,4.89,26.78,1027.95,2039.98,3507.92,3322.00,3598.28,349.69,354.15,0.62,0000 0000 0000 0000 000000
2014-12-17 02:54:13,0.07,0.06,0.00,20.60,25.28,28.57,4.84,26.87,1028.01,2039.98,3507.03,3321.27,3597.74,349.63,353.85,0.65,0000 0000 0000 0000 000000
2014-12-17 02:59:14,0.06,0.06,0.00,20.60,25.29,28.55,4.89,26.80,1028.08,2039.98,3506.15,3320.83,3596.92,349.93,354.40,0.68,0000 0000 0000 0000 000000
2014-12-17 03:04:16,0.07,0.06,0.00,20.61,25.29,28.58,4.91,26.80,1028.00,2039.98,3505.14,3320.06,3596.10,350.14,354.69,0.71,0000 0000 0000 0000 000000
2014-12-17 03:09:17,0.05,0.06,0.00,20.61,25.29,28.56,4.85,26.87,1028.15,2039.97,3504.13,3319.69,3595.87,349.90,354.32,0.74,0000 0000 0000 0000 000000
2014-12-17 03:14:18,0.06,0.07,0.00,20.62,25.29,28.55,4.93,27.01,1028.26,2039.99,3503.31,3319.02,3595.06,349.89,354.54,0.77,0000 0000 0000 0000 000000
2014-12-17 03:19:19,0.08,0.07,0.00,20.61,25.29,28.55,4.86,26.91,1028.28,2039.99,3502.31,3318.27,3594.41,349.72,354.26,0.80,0000 0000 0000 0000 000000
2014-12-17 03:24:20,0.06,0.07,0.00,20.60,25.29,28.56,4.98,26.80,1028.32,2039.98,3501.24,3317.68,3593.71,351.17,355.72,0.83,0000 0000 0000 0000 000000
2014-12-17 03:29:22,0.07,0.07,0.00,20.59,25.29,28.58,4.89,26.93,1028.32,2039.97,3500.21,3316.91,3592.75,350.22,354.79,0.86,0000 0000 0000 0000 000000
2014-12-17 03:34:23,0.07,0.07,0.00,20.60,25.29,28.56,4.89,26.81,1028.33,2039.99,3499.33,3316.09,3592.00,349.44,354.01,0.89,0000 0000 0000 0000 000000
2014-12-17 03:39:24,0.09,0.08,0.00,20.59,25.29,28.59,4.87,26.99,1028.35,2039.98,3498.09,3315.43,3591.18,350.07,354.59,0.92,0000 0000 0000 0000 000000
2014-12-17 03:44:25,0.06,0.08,0.00,20.63,25.28,28.59,4.90,26.98,1028.34,2039.97,3497.11,3314.80,3590.41,349.87,354.16,0.95,0000 0000 0000 0000 000000
2014-12-17 03:49:27,0.07,0.08,0.00,20.63,25.29,28.58,4.90,26.93,1028.34,2039.99,3496.18,3314.03,3589.66,349.95,354.44,0.98,0000 0000 0000 0000 000000
2014-12-17 03:54:28,0.08,0.08,0.00,20.63,25.29,28.59,4.95,26.76,1028.34,2039.98,3495.01,3313.24,3588.84,350.41,354.94,1.01,0000 0000 0000 0000 000000
2014-12-17 03:59:29,0.09,0.09,0.00,20.62,25.29,28.59,4.92,26.86,1028.34,2039.98,3493.82,3312.51,3587.96,350.53,354.92,1.03,0000 0000 0000 0000 000000
2014-12-17 04:04:30,0.07,0.09,0.00,20.60,25.29,28.60,4.93,26.84,1028.35,2039.99,3492.68,3311.83,3587.05,350.62,355.09,1.06,0000 0000 0000 0000 000000
2014-12-17 04:09:32,0.08,0.09,0.00,20.57,25.30,28.58,4.93,26.83,1028.37,2039.99,3491.46,3310.96,3586.14,350.11,354.69,1.09,0000 0000 0000 0000 000000
2014-12-17 04:14:33,0.09,0.09,0.00,20.60,25.30,28.57,4.91,26.82,1028.36,2039.99,3490.31,3310.06,3585.12,350.55,354.99,1.12,0000 0000 0000 0000 000000
2014-12-17 04:19:34,0.09,0.10,0.00,20.61,25.30,28.57,4.88,26.82,1028.36,2039.99,3489.22,3309.16,3584.11,350.21,354.65,1.15,0000 0000 0000 0000 000000
2014-12-17 04:24:35,0.08,0.10,0.00,20.61,25.30,28.59,4.97,27.01,1028.37,2039.99,3488.06,3308.39,3583.38,350.61,355.06,1.18,0000 0000 0000 0000 000000
2014-12-17 04:29:36,0.10,0.10,0.00,20.61,25.30,28.57,4.90,26.94,1028.36,2039.99,3486.78,3307.59,3582.63,349.62,354.22,1.21,0000 0000 0000 0000 000000
2014-12-17 04:34:38,0.10,0.10,0.00,20.61,25.30,28.60,4.91,26.94,1028.43,2039.99,3485.49,3306.64,3581.59,350.06,354.61,1.24,0000 0000 0000 0000 000000
2014-12-17 04:39:39,0.10,0.11,0.00,20.62,25.30,28.57,4.83,26.98,1028.43,2039.99,3484.08,3305.63,3580.51,349.29,354.13,1.27,0000 0000 0000 0000 000000
2014-12-17 04:44:40,0.06,0.11,0.00,20.61,25.30,28.59,4.91,26.95,1028.52,2039.99,3482.80,3304.89,3579.67,350.03,354.42,1.30,0000 0000 0000 0000 000000
2014-12-17 04:49:42,0.10,0.11,0.00,20.60,25.30,28.58,4.88,26.83,1028.52,2039.99,3481.55,3303.93,3578.64,349.78,354.29,1.33,0000 0000 0000 0000 000000
2014-12-17 04:54:43,0.09,0.12,0.00,20.62,25.30,28.58,4.90,26.83,1028.71,2039.99,3480.34,3303.04,3577.59,349.65,354.33,1.36,0000 0000 0000 0000 000000
2014-12-17 04:59:44,0.09,0.12,0.00,20.65,25.30,28.58,4.93,26.91,1028.68,2039.99,3479.01,3302.15,3576.65,350.34,354.79,1.39,0000 0000 0000 0000 000000
2014-12-17 05:04:45,0.10,0.12,0.00,20.69,25.30,28.58,4.89,26.96,1028.75,2039.99,3477.79,3301.20,3575.57,349.77,354.31,1.42,0000 0000 0000 0000 000000
2014-12-17 05:09:46,0.10,0.12,0.00,20.69,25.30,28.57,4.89,26.99,1028.76,2039.99,3476.43,3300.22,3574.47,349.86,354.67,1.44,0000 0000 0000 0000 000000
2014-12-17 05:14:48,0.10,0.13,0.00,20.70,25.30,28.57,4.93,26.95,1028.81,2039.99,3475.06,3299.31,3573.48,349.93,354.54,1.47,0000 0000 0000 0000 000000
2014-12-17 05:19:49,0.10,0.13,0.00,20.71,25.30,28.60,4.92,26.99,1028.82,2039.99,3473.72,3298.38,3572.43,350.14,354.74,1.50,0000 0000 0000 0000 000000
2014-12-17 05:24:50,0.10,0.13,0.00,20.66,25.30,28.62,4.92,26.92,1028.85,2039.99,3472.38,3297.32,3571.23,350.23,354.90,1.53,0000 0000 0000 0000 000000
2014-12-17 05:29:52,0.11,0.14,0.00,20.68,25.30,28.56,4.90,26.90,1028.94,2039.99,3470.79,3296.23,3570.05,350.45,355.04,1.56,0000 0000 0000 0000 000000
2014-12-17 05:34:53,0.10,0.14,0.00,20.69,25.30,28.57,4.92,26.93,1029.18,2039.99,3469.42,3295.31,3568.91,350.30,354.92,1.59,0000 0000 0000 0000 000000
2014-12-17 05:39:54,0.11,0.14,0.00,20.69,25.30,28.57,4.89,27.02,1029.21,2039.99,3467.89,3294.10,3567.84,350.26,354.91,1.62,0000 0000 0000 0000 000000
2014-12-17 05:44:56,0.11,0.15,0.00,20.69,25.30,28.61,4.85,26.89,1028.99,2039.99,3466.51,3293.11,3566.59,349.98,354.58,1.65,0000 0000 0000 0000 000000
2014-12-17 05:49:57,0.10,0.15,0.00,20.70,25.31,28.58,4.96,26.94,1029.09,2039.99,3465.16,3292.08,3565.46,349.94,354.83,1.68,0000 0000 0000 0000 000000
2014-12-17 05:54:58,0.11,0.15,0.00,20.72,25.32,28.61,4.88,26.93,1029.23,2039.99,3463.69,3291.05,3564.25,349.68,354.58,1.71,0000 0000 0000 0000 000000
2014-12-17 05:59:59,0.09,0.16,0.00,20.71,25.32,28.61,4.87,26.84,1029.02,2039.99,3462.31,3290.08,3563.23,350.26,355.03,1.74,0000 0000 0000 0000 000000
2014-12-17 06:05:00,0.10,0.16,0.00,20.76,25.32,28.59,4.86,26.84,1029.29,2039.99,3460.91,3289.08,3562.05,349.89,354.73,1.77,0000 0000 0000 0000 000000
2014-12-17 06:10:01,0.11,0.16,0.00,20.79,25.32,28.60,4.92,26.98,1029.24,2039.99,3459.46,3288.00,3560.85,350.21,354.99,1.80,0000 0000 0000 0000 000000
2014-12-17 06:15:02,0.11,0.17,0.00,20.81,25.32,28.60,4.91,27.05,1029.31,2039.97,3457.93,3286.91,3559.72,350.00,354.74,1.83,0000 0000 0000 0000 000000
2014-12-17 06:20:03,0.11,0.17,0.00,20.81,25.32,28.60,4.88,26.95,1029.32,2039.98,3456.55,3285.93,3558.55,350.21,354.87,1.85,0000 0000 0000 0000 000000
2014-12-17 06:25:05,0.09,0.17,0.00,20.80,25.33,28.61,4.89,27.06,1029.34,2039.99,3455.31,3284.94,3557.44,349.74,354.47,1.88,0000 0000 0000 0000 000000
2014-12-17 06:30:06,0.11,0.17,0.00,20.81,25.35,28.63,4.89,26.88,1029.33,2039.99,3453.84,3283.89,3556.32,350.27,355.04,1.91,0000 0000 0000 0000 000000
2014-12-17 06:35:07,0.11,0.18,0.00,20.82,25.35,28.62,4.89,26.82,1029.32,2039.98,3452.42,3282.84,3555.18,349.78,354.52,1.94,0000 0000 0000 0000 000000
2014-12-17 06:40:09,0.12,0.18,0.00,20.85,25.35,28.60,4.81,26.87,1029.31,2039.98,3450.89,3281.77,3553.97,349.83,354.42,1.97,0000 0000 0000 0000 000000
2014-12-17 06:45:10,0.11,0.18,0.00,20.86,25.35,28.60,4.91,27.02,1029.41,2039.98,3449.45,3280.69,3552.74,349.99,354.59,2.00,0000 0000 0000 0000 000000
2014-12-17 06:50:11,0.10,0.19,0.00,20.86,25.35,28.63,4.87,26.81,1029.70,2039.97,3448.01,3279.61,3551.59,349.99,354.68,2.03,0000 0000 0000 0000 000000
2014-12-17 06:55:13,0.11,0.19,0.00,20.88,25.37,28.61,4.91,27.02,1029.68,2039.96,3446.57,3278.57,3550.35,349.53,354.29,2.06,0000 0000 0000 0000 000000
2014-12-17 07:00:14,0.10,0.20,0.00,20.85,25.37,28.64,4.86,26.90,1029.72,2039.95,3445.14,3277.52,3549.20,350.05,354.78,2.09,0000 0000 0000 0000 000000
2014-12-17 07:05:16,0.11,0.20,0.00,20.87,25.37,28.64,4.85,27.07,1029.80,2039.94,3443.67,3276.46,3547.92,349.80,354.61,2.12,0000 0000 0000 0000 000000
2014-12-17 07:10:17,0.10,0.20,0.00,20.82,25.37,28.63,4.91,26.95,1029.80,2039.84,3442.11,3275.36,3546.66,350.01,355.07,2.15,0000 0000 0000 0000 000000
2014-12-17 07:15:19,0.11,0.20,0.00,20.81,25.38,28.64,4.94,26.95,1029.80,2039.79,3440.65,3274.23,3545.51,350.34,355.14,2.18,0000 0000 0000 0000 000000
2014-12-17 07:20:20,0.08,0.21,0.00,20.84,25.39,28.63,4.89,27.03,1029.81,2039.70,3439.17,3273.14,3544.27,349.95,354.70,2.21,0000 0000 0000 0000 000000
2014-12-17 07:25:21,0.13,0.21,0.00,20.81,25.40,28.65,4.87,27.07,1029.83,2039.86,3437.74,3272.22,3543.22,349.91,354.77,2.24,0000 0000 0000 0000 000000
2014-12-17 07:30:22,0.07,0.21,0.00,20.80,25.40,28.66,4.91,27.18,1029.81,2039.62,3436.14,3270.99,3541.88,349.58,354.52,2.26,0000 0000 0000 0000 000000
2014-12-17 07:35:23,0.10,0.22,0.00,20.74,25.40,28.65,4.85,26.92,1029.85,2039.45,3434.63,3269.87,3540.67,349.89,354.76,2.29,0000 0000 0000 0000 000000
2014-12-17 07:40:25,0.09,0.22,0.00,20.78,25.40,28.68,4.87,27.02,1029.85,2039.18,3433.09,3268.72,3539.37,349.73,354.78,2.32,0000 0000 0000 0000 000000
2014-12-17 07:45:27,0.15,0.22,0.00,20.81,25.40,28.69,4.86,27.15,1029.84,2039.41,3431.68,3267.75,3538.26,349.41,354.45,2.35,0000 0000 0000 0000 000000
2014-12-17 07:50:28,0.08,0.23,0.00,20.80,25.41,28.71,4.82,26.93,1030.00,2039.22,3430.10,3266.59,3536.96,349.58,354.58,2.38,0000 0000 0000 0000 000000
2014-12-17 07:55:29,0.11,0.23,0.00,20.80,25.42,28.73,4.91,27.03,1030.01,2039.08,3428.53,3265.34,3535.64,349.81,354.81,2.41,0000 0000 0000 0000 000000
2014-12-17 08:00:30,0.11,0.23,0.00,20.75,25.42,28.72,4.92,26.95,1030.21,2039.12,3427.05,3264.33,3534.49,350.29,354.97,2.44,0000 0000 0000 0000 000000
2014-12-17 08:05:32,0.11,0.24,0.00,20.75,25.42,28.74,4.87,27.13,1030.20,2039.11,3425.58,3263.32,3533.29,349.78,354.92,2.47,0000 0000 0000 0000 000000
2014-12-17 08:10:33,0.09,0.24,0.00,20.74,25.42,28.74,4.96,26.98,1030.27,2039.05,3424.04,3262.33,3532.06,350.49,355.55,2.50,0000 0000 0000 0000 000000
2014-12-17 08:15:34,0.12,0.24,0.00,20.72,25.42,28.72,4.87,27.04,1030.23,2039.04,3422.46,3261.12,3530.75,350.27,355.35,2.53,0000 0000 0000 0000 000000
2014-12-17 08:20:35,0.11,0.25,0.00,20.77,25.42,28.71,4.89,27.07,1030.18,2039.02,3420.85,3259.98,3529.55,350.21,355.13,2.56,0000 0000 0000 0000 000000
2014-12-17 08:25:36,0.11,0.25,0.00,20.76,25.42,28.74,4.87,26.98,1030.24,2039.03,3419.39,3258.88,3528.29,350.32,355.09,2.59,0000 0000 0000 0000 000000
2014-12-17 08:30:37,0.11,0.25,0.00,20.76,25.42,28.72,4.84,27.07,1030.29,2039.02,3417.85,3257.84,3527.19,350.00,355.09,2.62,0000 0000 0000 0000 000000
2014-12-17 08:35:38,0.10,0.26,0.00,20.73,25.42,28.74,4.94,27.18,1030.29,2039.04,3416.48,3256.85,3526.05,350.12,355.35,2.65,0000 0000 0000 0000 000000
2014-12-17 08:40:40,0.13,0.26,0.00,20.68,25.42,28.70,4.88,27.18,1030.29,2039.03,3414.94,3255.71,3524.77,349.77,355.04,2.67,0000 0000 0000 0000 000000
2014-12-17 08:45:41,0.10,0.26,0.00,20.66,25.42,28.72,4.98,26.96,1030.29,2039.03,3413.64,3254.74,3523.70,350.73,355.77,2.70,0000 0000 0000 0000 000000
2014-12-17 08:50:42,0.12,0.27,0.00,20.68,25.42,28.71,4.91,27.23,1030.28,2039.02,3412.10,3253.68,3522.53,350.11,355.27,2.73,0000 0000 0000 0000 000000
2014-12-17 08:55:44,0.12,0.27,0.00,20.68,25.42,28.70,4.99,27.38,1030.29,2039.02,3410.54,3252.50,3521.36,350.09,355.14,2.76,0000 0000 0000 0000 000000
2014-12-17 09:00:45,0.11,0.27,0.00,20.64,25.42,28.73,4.87,27.14,1030.37,2039.04,3408.95,3251.46,3520.23,349.59,355.04,2.79,0000 0000 0000 0000 000000
2014-12-17 09:05:46,0.11,0.28,0.00,20.63,25.42,28.74,4.89,26.98,1030.76,2039.04,3407.63,3250.41,3519.16,349.49,354.96,2.82,0000 0000 0000 0000 000000
2014-12-17 09:10:47,0.10,0.28,0.00,20.63,25.40,28.69,4.88,26.90,1030.78,2039.06,3406.34,3249.44,3518.16,350.32,355.61,2.85,0000 0000 0000 0000 000000
2014-12-17 09:15:49,0.11,0.28,0.00,20.66,25.40,28.66,4.96,27.00,1030.78,2039.09,3404.89,3248.46,3517.00,350.50,355.83,2.88,0000 0000 0000 0000 000000
2014-12-17 09:20:50,0.10,0.29,0.00,20.64,25.40,28.68,4.91,27.06,1030.78,2039.07,3403.50,3247.45,3515.80,349.96,355.38,2.91,0000 0000 0000 0000 000000
2014-12-17 09:25:51,0.10,0.29,0.00,20.64,25.40,28.67,4.89,27.02,1030.78,2039.06,3402.07,3246.35,3514.70,350.23,355.81,2.94,0000 0000 0000 0000 000000
2014-12-17 09:30:52,0.11,0.29,0.00,20.62,25.40,28.69,4.93,27.09,1030.78,2039.08,3400.75,3245.42,3513.73,350.23,355.40,2.97,0000 0000 0000 0000 000000
2014-12-17 09:35:53,0.10,0.29,0.00,20.61,25.38,28.68,4.86,27.18,1030.80,2039.08,3399.36,3244.42,3512.50,349.69,355.21,3.00,0000 0000 0000 0000 000000
2014-12-17 09:40:55,0.11,0.30,0.00,20.64,25.37,28.65,4.89,27.07,1031.15,2039.04,3397.78,3243.27,3511.26,350.02,355.45,3.03,0000 0000 0000 0000 000000
2014-12-17 09:45:56,0.11,0.30,0.00,20.64,25.37,28.66,4.91,26.93,1031.25,2039.04,3396.34,3242.16,3510.00,349.89,355.47,3.06,0000 0000 0000 0000 000000
2014-12-17 09:50:57,0.11,0.31,0.00,20.64,25.37,28.65,4.91,27.05,1031.25,2039.06,3394.94,3241.14,3508.88,349.82,355.28,3.08,0000 0000 0000 0000 000000
2014-12-17 09:55:58,0.11,0.31,0.00,20.63,25.37,28.66,4.85,27.03,1031.23,2039.13,3393.62,3240.27,3507.78,349.96,355.60,3.11,0000 0000 0000 0000 000000
2014-12-17 10:00:59,0.11,0.31,0.00,20.63,25.36,28.65,4.92,27.02,1031.26,2039.07,3392.15,3239.13,3506.60,349.99,355.66,3.14,0000 0000 0000 0000 000000
2014-12-17 10:06:01,0.10,0.32,0.00,20.59,25.35,28.67,4.93,27.15,1031.26,2039.07,3390.78,3238.03,3505.52,350.01,355.74,3.17,0000 0000 0000 0000 000000
2014-12-17 10:11:02,0.10,0.32,0.00,20.59,25.35,28.64,4.91,27.09,1031.27,2039.06,3389.47,3236.99,3504.28,349.65,355.37,3.20,0000 0000 0000 0000 000000
2014-12-17 10:16:03,0.11,0.32,0.00,20.57,25.35,28.63,4.88,27.32,1031.25,2039.09,3388.01,3235.97,3503.21,350.09,355.65,3.23,0000 0000 0000 0000 000000
2014-12-17 10:21:05,0.13,0.33,0.00,20.57,25.35,28.63,5.05,27.43,1031.21,2039.27,3386.58,3234.92,3502.05,350.74,356.52,3.26,0000 0000 0000 0000 000000
2014-12-17 10:26:06,0.10,0.33,0.00,20.55,25.33,28.63,4.95,27.29,1031.26,2039.15,3385.01,3233.80,3500.84,350.32,355.82,3.29,0000 0000 0000 0000 000000
2014-12-17 10:31:07,0.14,0.33,0.00,20.54,25.32,28.63,4.87,26.90,1031.30,2039.23,3383.62,3232.77,3499.73,350.11,355.66,3.32,0000 0000 0000 0000 000000
2014-12-17 10:36:08,0.13,0.34,0.00,20.55,25.32,28.61,4.95,26.95,1031.30,2039.38,3382.23,3231.76,3498.62,349.70,355.13,3.35,0000 0000 0000 0000 000000
2014-12-17 10:41:09,0.10,0.34,0.00,20.57,25.32,28.64,4.95,27.15,1031.29,2039.30,3380.69,3230.65,3497.41,350.24,355.83,3.38,0000 0000 0000 0000 000000
2014-12-17 10:46:11,0.13,0.34,0.00,20.51,25.31,28.62,4.88,26.95,1031.34,2039.55,3379.36,3229.67,3496.38,349.39,355.04,3.41,0000 0000 0000 0000 000000
2014-12-17 10:51:12,0.14,0.35,0.00,20.51,25.30,28.62,4.90,26.96,1031.60,2039.70,3377.84,3228.60,3495.22,349.88,355.59,3.44,0000 0000 0000 0000 000000
2014-12-17 10:56:13,0.11,0.35,0.00,20.53,25.30,28.57,4.87,26.89,1031.59,2039.66,3376.39,3227.47,3493.85,349.92,355.69,3.47,0000 0000 0000 0000 000000
2014-12-17 11:01:14,0.14,0.36,0.00,20.54,25.30,28.60,4.93,27.16,1031.28,2039.61,3374.73,3226.23,3492.58,350.22,355.89,3.49,0000 0000 0000 0000 000000
2014-12-17 11:06:16,0.14,0.36,0.00,20.51,25.30,28.58,4.95,27.51,1031.27,2039.76,3373.03,3224.98,3491.25,350.21,355.71,3.52,0000 0000 0000 0000 000000
2014-12-17 11:11:17,0.16,0.36,0.00,20.45,25.29,28.56,4.99,27.52,1031.28,2039.87,3371.28,3223.68,3489.80,349.90,356.09,3.55,0000 0000 0000 0000 000000
2014-12-17 11:16:18,0.14,0.37,0.00,20.43,25.27,28.56,4.95,27.36,1031.28,2039.89,3369.52,3222.41,3488.44,349.75,355.55,3.58,0000 0000 0000 0000 000000
2014-12-17 11:21:19,0.15,0.37,0.00,20.40,25.27,28.57,4.95,27.41,1031.27,2039.87,3367.59,3220.93,3486.79,350.14,355.84,3.61,0000 0000 0000 0000 000000
2014-12-17 11:26:21,0.15,0.38,0.00,20.41,25.27,28.56,4.92,27.29,1031.48,2039.88,3365.80,3219.62,3485.34,349.80,355.74,3.64,0000 0000 0000 0000 000000
2014-12-17 11:31:22,0.12,0.38,0.00,20.38,25.25,28.54,4.98,27.19,1031.74,2039.93,3364.18,3218.42,3484.00,349.67,355.67,3.67,0000 0000 0000 0000 000000
2014-12-17 11:36:23,0.13,0.39,0.00,20.40,25.25,28.49,4.92,27.02,1031.68,2039.96,3362.59,3217.22,3482.73,350.00,355.95,3.70,0000 0000 0000 0000 000000
2014-12-17 11:41:24,0.13,0.39,0.00,20.35,25.23,28.47,4.91,27.32,1031.30,2039.96,3360.81,3216.08,3481.35,350.06,355.92,3.73,0000 0000 0000 0000 000000
2014-12-17 11:46:26,0.15,0.39,0.00,20.34,25.22,28.47,4.99,27.22,1031.36,2039.98,3359.19,3214.78,3480.10,350.52,356.65,3.76,0000 0000 0000 0000 000000
2014-12-17 11:51:27,0.13,0.40,0.00,20.37,25.22,28.44,4.86,27.11,1031.43,2039.99,3357.46,3213.53,3478.62,349.78,355.54,3.79,0000 0000 0000 0000 000000
2014-12-17 11:56:28,0.13,0.40,0.00,20.33,25.20,28.43,4.94,27.02,1031.47,2039.98,3355.64,3212.19,3477.20,349.80,355.57,3.82,0000 0000 0000 0000 000000
2014-12-17 12:01:29,0.13,0.41,0.00,20.34,25.19,28.39,4.95,27.23,1031.47,2039.99,3353.87,3210.97,3475.86,350.02,355.69,3.85,0000 0000 0000 0000 000000
2014-12-17 12:06:30,0.14,0.41,0.00,20.26,25.17,28.38,5.00,27.27,1031.35,2039.99,3352.20,3209.67,3474.49,350.35,356.28,3.88,0000 0000 0000 0000 000000
2014-12-17 12:11:32,0.12,0.41,0.00,20.28,25.17,28.39,4.95,27.12,1031.63,2039.99,3350.51,3208.48,3473.21,350.04,356.04,3.90,0000 0000 0000 0000 000000
2014-12-17 12:16:33,0.13,0.42,0.00,20.29,25.15,28.37,4.85,27.01,1031.75,2039.99,3348.84,3207.27,3471.87,349.71,355.62,3.93,0000 0000 0000 0000 000000
2014-12-17 12:21:34,0.15,0.42,0.00,20.31,25.15,28.35,4.95,26.95,1031.76,2039.99,3347.06,3205.89,3470.50,349.99,356.09,3.96,0000 0000 0000 0000 000000
2014-12-17 12:26:35,0.12,0.43,0.00,20.29,25.12,28.34,5.06,26.92,1031.76,2039.99,3345.43,3204.71,3469.17,351.03,357.25,3.99,0000 0000 0000 0000 000000
2014-12-17 12:31:36,0.14,0.43,0.00,20.30,25.12,28.38,5.00,26.94,1031.75,2039.99,3343.75,3203.54,3467.81,350.14,356.02,4.02,0000 0000 0000 0000 000000
2014-12-17 12:36:37,0.11,0.43,0.00,20.33,25.10,28.37,4.92,27.07,1031.75,2040.00,3342.21,3202.43,3466.63,349.99,355.90,4.05,0000 0000 0000 0000 000000
2014-12-17 12:41:38,0.12,0.44,0.00,20.28,25.10,28.35,5.04,27.15,1031.70,2040.00,3340.45,3201.16,3465.27,350.49,356.53,4.08,0000 0000 0000 0000 000000
2014-12-17 12:46:40,0.14,0.44,0.00,20.31,25.08,28.36,4.92,26.97,1031.72,2040.01,3338.78,3199.87,3463.92,350.34,356.33,4.11,0000 0000 0000 0000 000000
2014-12-17 12:51:41,0.12,0.45,0.00,20.26,25.07,28.34,4.87,27.06,1031.75,2040.01,3337.19,3198.76,3462.65,349.99,355.98,4.14,0000 0000 0000 0000 000000
2014-12-17 12:56:42,0.14,0.45,0.00,20.27,25.07,28.34,4.88,27.13,1031.73,2040.02,3335.49,3197.58,3461.39,350.03,356.34,4.17,0000 0000 0000 0000 000000
2014-12-17 13:01:44,0.12,0.45,0.00,20.30,25.05,28.28,4.87,27.10,1031.74,2040.04,3333.83,3196.37,3460.03,350.03,356.14,4.20,0000 0000 0000 0000 000000
2014-12-17 13:06:45,0.11,0.46,0.00,20.27,25.05,28.31,4.83,26.97,1031.75,2040.03,3332.29,3195.21,3458.77,350.03,356.34,4.23,0000 0000 0000 0000 000000